Time,TemperatureF,DewpointF,PressureIn,WindDirection,WindDirectionDegrees,WindSpeedMPH,WindSpeedGustMPH,Humidity,HourlyPrecipIn,Conditions,Clouds,dailyrainin,SoftwareType,DateUTC
2013-05-21 00:01:00,72.5,67.7,29.81,SW,225,3.7,3.7,85,0.00,CLR,,0.00,WeatherDisplay:10.37,2013-05-21 04:01:00,
2013-05-21 00:02:00,72.5,67.7,29.80,SW,225,3.5,3.5,85,0.00,CLR,,0.00,WeatherDisplay:10.37,2013-05-21 04:02:00,
2013-05-21 00:04:00,72.1,67.3,29.80,SW,225,3.5,3.5,85,0.00,CLR,,0.00,WeatherDisplay:10.37,2013-05-21 04:04:00,
2013-05-21 00:05:00,72.1,67.3,29.80,SW,220,3.0,4.0,85,0.00,CLR,,0.00,WeatherDisplay:10.37,2013-05-21 04:05:00,
2013-05-21 00:10:00,71.2,67.5,29.80,SW,228,2.0,4.0,88,0.00,CLR,,0.00,WeatherDisplay:10.37,2013-05-21 04:10:00,
2013-05-21 00:15:00,71.6,67.9,29.80,SW,225,2.0,4.0,88,0.00,CLR,,0.00,WeatherDisplay:10.37,2013-05-21 04:15:00,
2013-05-21 00:20:00,71.6,67.5,29.80,SW,223,2.0,3.0,87,0.00,CLR,,0.00,WeatherDisplay:10.37,2013-05-21 04:20:00,
2013-05-21 00:25:00,71.8,67.7,29.80,SW,220,3.0,4.0,87,0.00,CLR,,0.00,WeatherDisplay:10.37,2013-05-21 04:25:00,
2013-05-21 00:30:00,70.9,67.2,29.80,SW,226,2.0,3.0,88,0.00,CLR,,0.00,WeatherDisplay:10.37,2013-05-21 04:30:00,
2013-05-21 00:35:00,71.0,67.6,29.80,SW,224,2.0,3.0,89,0.00,CLR,,0.00,WeatherDisplay:10.37,2013-05-21 04:35:00,
2013-05-21 00:40:00,71.1,67.7,29.79,SW,219,1.0,2.0,89,0.00,CLR,,0.00,WeatherDisplay:10.37,2013-05-21 04:40:00,
2013-05-21 00:45:00,71.1,67.7,29.79,SSW,209,2.0,3.0,89,0.00,CLR,,0.00,WeatherDisplay:10.37,2013-05-21 04:45:00,
2013-05-21 00:50:00,70.9,67.5,29.80,SSW,194,0.0,2.0,89,0.00,CLR,,0.00,WeatherDisplay:10.37,2013-05-21 04:50:00,
2013-05-21 00:55:00,70.5,67.1,29.80,SSW,193,0.0,0.0,89,0.00,CLR,,0.00,WeatherDisplay:10.37,2013-05-21 04:55:00,
2013-05-21 01:00:00,70.2,67.1,29.80,SSW,209,0.0,2.0,90,0.00,CLR,,0.00,WeatherDisplay:10.37,2013-05-21 05:00:00,
2013-05-21 01:05:00,69.8,67.1,29.80,SW,225,0.0,0.0,91,0.00,CLR,,0.00,WeatherDisplay:10.37,2013-05-21 05:05:00,
2013-05-21 01:10:00,69.6,66.9,29.80,South,190,1.0,2.0,91,0.00,CLR,,0.00,WeatherDisplay:10.37,2013-05-21 05:10:00,
2013-05-21 01:15:00,70.0,67.3,29.79,ESE,110,0.0,2.0,91,0.00,CLR,,0.00,WeatherDisplay:10.37,2013-05-21 05:15:00,
2013-05-21 01:20:00,69.6,66.9,29.79,ESE,103,1.0,2.0,91,0.00,CLR,,0.00,WeatherDisplay:10.37,2013-05-21 05:20:00,
2013-05-21 01:25:00,69.3,66.9,29.79,East,97,2.0,3.0,92,0.00,CLR,,0.00,WeatherDisplay:10.37,2013-05-21 05:25:00,
2013-05-21 01:30:00,68.7,66.6,29.79,SW,231,1.0,4.0,93,0.00,CLR,,0.00,WeatherDisplay:10.37,2013-05-21 05:30:00,
2013-05-21 01:35:00,68.7,66.6,29.79,SW,227,0.0,2.0,93,0.00,CLR,,0.00,WeatherDisplay:10.37,2013-05-21 05:35:00,
2013-05-21 01:40:00,68.5,66.4,29.79,SSE,159,0.0,0.0,93,0.00,CLR,,0.00,WeatherDisplay:10.37,2013-05-21 05:40:00,
2013-05-21 01:45:00,68.5,66.4,29.79,South,179,0.0,0.0,93,0.00,CLR,,0.00,WeatherDisplay:10.37,2013-05-21 05:45:00,
2013-05-21 01:50:00,68.4,66.6,29.78,SSW,207,1.0,3.0,94,0.00,CLR,,0.00,WeatherDisplay:10.37,2013-05-21 05:50:00,
2013-05-21 01:55:00,68.2,66.4,29.78,SSW,212,0.0,2.0,94,0.00,CLR,,0.00,WeatherDisplay:10.37,2013-05-21 05:55:00,
2013-05-21 02:00:00,68.0,66.2,29.78,SW,228,0.0,2.0,94,0.00,CLR,,0.00,WeatherDisplay:10.37,2013-05-21 06:00:00,
2013-05-21 02:05:00,67.6,66.1,29.78,South,186,0.0,2.0,95,0.00,CLR,,0.00,WeatherDisplay:10.37,2013-05-21 06:05:00,
2013-05-21 02:10:00,67.6,66.1,29.78,SSW,213,0.0,1.0,95,0.00,CLR,,0.00,WeatherDisplay:10.37,2013-05-21 06:10:00,
2013-05-21 02:15:00,67.6,66.4,29.78,WSW,242,1.0,2.0,96,0.00,CLR,,0.00,WeatherDisplay:10.37,2013-05-21 06:15:00,
2013-05-21 02:20:00,67.6,66.4,29.78,WSW,245,0.0,0.0,96,0.00,CLR,,0.00,WeatherDisplay:10.37,2013-05-21 06:20:00,
2013-05-21 02:25:00,67.5,66.6,29.78,West,259,1.0,3.0,97,0.00,CLR,,0.00,WeatherDisplay:10.37,2013-05-21 06:25:00,
2013-05-21 02:30:00,67.5,66.6,29.78,WSW,254,2.0,3.0,97,0.00,CLR,,0.00,WeatherDisplay:10.37,2013-05-21 06:30:00,
2013-05-21 02:35:00,67.5,66.6,29.78,WSW,237,1.0,2.0,97,0.00,CLR,,0.00,WeatherDisplay:10.37,2013-05-21 06:35:00,
2013-05-21 02:40:00,67.5,66.6,29.79,WSW,237,2.0,3.0,97,0.00,CLR,,0.00,WeatherDisplay:10.37,2013-05-21 06:40:00,
2013-05-21 02:45:00,67.1,66.2,29.79,WSW,246,2.0,3.0,97,0.00,CLR,,0.00,WeatherDisplay:10.37,2013-05-21 06:45:00,
2013-05-21 02:50:00,67.1,66.5,29.78,WSW,237,1.0,3.0,98,0.00,CLR,,0.00,WeatherDisplay:10.37,2013-05-21 06:50:00,
2013-05-21 02:55:00,67.1,66.5,29.78,SW,223,0.0,2.0,98,0.00,CLR,,0.00,WeatherDisplay:10.37,2013-05-21 06:55:00,
2013-05-21 03:00:00,67.1,66.5,29.78,SW,229,0.0,0.0,98,0.00,CLR,,0.00,WeatherDisplay:10.37,2013-05-21 07:00:00,
2013-05-21 03:05:00,66.9,66.3,29.78,WSW,243,2.0,3.0,98,0.00,CLR,,0.00,WeatherDisplay:10.37,2013-05-21 07:05:00,
2013-05-21 03:10:00,66.9,66.3,29.78,WSW,249,2.0,4.0,98,0.00,CLR,,0.00,WeatherDisplay:10.37,2013-05-21 07:10:00,
2013-05-21 03:15:00,66.9,66.3,29.78,WSW,238,2.0,4.0,98,0.00,CLR,,0.00,WeatherDisplay:10.37,2013-05-21 07:15:00,
2013-05-21 03:20:00,66.9,66.6,29.78,SW,227,0.0,3.0,99,0.00,CLR,,0.00,WeatherDisplay:10.37,2013-05-21 07:20:00,
2013-05-21 03:25:00,66.9,66.6,29.78,SW,232,2.0,3.0,99,0.00,CLR,,0.00,WeatherDisplay:10.37,2013-05-21 07:25:00,
2013-05-21 03:30:00,66.7,66.4,29.79,SW,221,3.0,4.0,99,0.00,CLR,,0.00,WeatherDisplay:10.37,2013-05-21 07:30:00,
2013-05-21 03:35:00,66.7,66.4,29.79,WSW,243,2.0,3.0,99,0.00,CLR,,0.00,WeatherDisplay:10.37,2013-05-21 07:35:00,
2013-05-21 03:40:00,66.7,66.4,29.79,WSW,250,2.0,3.0,99,0.00,CLR,,0.00,WeatherDisplay:10.37,2013-05-21 07:40:00,
2013-05-21 03:45:00,66.6,66.3,29.79,SW,225,4.6,4.6,99,0.00,CLR,,0.00,WeatherDisplay:10.37,2013-05-21 07:45:00,
2013-05-21 03:50:00,66.6,66.3,29.79,SW,225,3.5,3.5,99,0.00,CLR,,0.00,WeatherDisplay:10.37,2013-05-21 07:50:00,
2013-05-21 03:55:00,66.6,66.3,29.79,WSW,248,2.7,2.7,99,0.00,CLR,,0.00,WeatherDisplay:10.37,2013-05-21 07:55:00,
2013-05-21 04:00:00,66.6,66.3,29.79,SW,225,2.7,2.7,99,0.00,CLR,,0.00,WeatherDisplay:10.37,2013-05-21 08:00:00,
2013-05-21 04:05:00,66.6,66.3,29.79,SW,225,3.5,3.5,99,0.00,CLR,,0.00,WeatherDisplay:10.37,2013-05-21 08:05:00,
2013-05-21 04:10:00,66.6,66.3,29.79,West,270,3.5,3.5,99,0.00,CLR,,0.00,WeatherDisplay:10.37,2013-05-21 08:10:00,
2013-05-21 04:15:00,66.6,66.3,29.79,SW,225,2.7,2.7,99,0.00,CLR,,0.00,WeatherDisplay:10.37,2013-05-21 08:15:00,
2013-05-21 04:20:00,66.4,66.1,29.79,SW,225,2.3,2.4,99,0.00,CLR,,0.00,WeatherDisplay:10.37,2013-05-21 08:20:00,
2013-05-21 04:25:00,66.4,66.1,29.79,SSW,202,1.1,1.1,99,0.00,CLR,,0.00,WeatherDisplay:10.37,2013-05-21 08:25:00,
2013-05-21 04:30:00,66.2,65.9,29.79,SSE,158,0.0,0.0,99,0.00,CLR,,0.00,WeatherDisplay:10.37,2013-05-21 08:30:00,
2013-05-21 04:35:00,66.0,65.7,29.79,SSW,202,1.7,1.7,99,0.00,CLR,,0.00,WeatherDisplay:10.37,2013-05-21 08:35:00,
2013-05-21 04:40:00,66.0,65.7,29.79,SW,225,2.3,2.3,99,0.00,CLR,,0.00,WeatherDisplay:10.37,2013-05-21 08:40:00,
2013-05-21 04:45:00,65.8,65.5,29.79,SSW,202,1.1,1.1,99,0.00,CLR,,0.00,WeatherDisplay:10.37,2013-05-21 08:45:00,
2013-05-21 04:50:00,65.8,65.5,29.79,SW,225,3.2,3.2,99,0.00,CLR,,0.00,WeatherDisplay:10.37,2013-05-21 08:50:00,
2013-05-21 04:55:00,65.8,65.5,29.79,WSW,248,2.3,2.3,99,0.00,CLR,,0.00,WeatherDisplay:10.37,2013-05-21 08:55:00,
2013-05-21 05:00:00,65.8,65.5,29.79,WSW,248,3.5,3.5,99,0.00,CLR,,0.00,WeatherDisplay:10.37,2013-05-21 09:00:00,
2013-05-21 05:05:00,65.8,65.5,29.80,SE,135,2.3,2.3,99,0.00,CLR,,0.00,WeatherDisplay:10.37,2013-05-21 09:05:00,
2013-05-21 05:10:00,65.8,65.5,29.80,WSW,248,2.3,2.3,99,0.00,CLR,,0.00,WeatherDisplay:10.37,2013-05-21 09:10:00,
2013-05-21 05:15:00,65.8,65.5,29.79,SSW,202,2.3,2.3,99,0.00,CLR,,0.00,WeatherDisplay:10.37,2013-05-21 09:15:00,
2013-05-21 05:20:00,65.8,65.5,29.79,SSW,202,2.7,2.7,99,0.00,CLR,,0.00,WeatherDisplay:10.37,2013-05-21 09:20:00,
2013-05-21 05:25:00,65.8,65.5,29.79,East,90,4.6,4.6,99,0.00,CLR,,0.00,WeatherDisplay:10.37,2013-05-21 09:25:00,
2013-05-21 05:30:00,65.8,65.5,29.80,South,180,2.3,2.3,99,0.00,CLR,,0.00,WeatherDisplay:10.37,2013-05-21 09:30:00,
2013-05-21 05:35:00,65.8,65.5,29.80,ENE,68,2.3,2.3,99,0.00,CLR,,0.00,WeatherDisplay:10.37,2013-05-21 09:35:00,
2013-05-21 05:40:00,65.8,65.5,29.80,SW,225,3.5,3.5,99,0.00,CLR,,0.00,WeatherDisplay:10.37,2013-05-21 09:40:00,
2013-05-21 05:45:00,65.8,65.5,29.80,WSW,248,3.5,3.5,99,0.00,CLR,,0.00,WeatherDisplay:10.37,2013-05-21 09:45:00,
2013-05-21 05:50:00,65.7,65.4,29.80,SW,225,3.5,3.5,99,0.00,CLR,,0.00,WeatherDisplay:10.37,2013-05-21 09:50:00,
2013-05-21 05:55:00,65.7,65.4,29.80,WSW,248,2.3,2.3,99,0.00,CLR,,0.00,WeatherDisplay:10.37,2013-05-21 09:55:00,
2013-05-21 06:00:00,65.7,65.4,29.80,SSW,202,2.7,2.7,99,0.00,CLR,,0.00,WeatherDisplay:10.37,2013-05-21 10:00:00,
2013-05-21 06:05:00,65.7,65.4,29.81,SW,225,3.7,3.7,99,0.00,CLR,,0.00,WeatherDisplay:10.37,2013-05-21 10:05:00,
2013-05-21 06:10:00,65.7,65.4,29.81,SW,225,3.5,3.5,99,0.00,CLR,,0.00,WeatherDisplay:10.37,2013-05-21 10:10:00,
2013-05-21 06:15:00,65.8,65.5,29.81,WSW,248,3.5,3.5,99,0.00,CLR,,0.00,WeatherDisplay:10.37,2013-05-21 10:15:00,
2013-05-21 06:20:00,65.8,65.5,29.81,SW,225,3.7,3.7,99,0.00,CLR,,0.00,WeatherDisplay:10.37,2013-05-21 10:20:00,
2013-05-21 06:25:00,65.8,65.5,29.81,SSW,202,3.7,3.7,99,0.00,CLR,,0.00,WeatherDisplay:10.37,2013-05-21 10:25:00,
2013-05-21 06:30:00,66.2,65.9,29.81,SW,225,3.7,3.7,99,0.00,CLR,,0.00,WeatherDisplay:10.37,2013-05-21 10:30:00,
2013-05-21 06:35:00,66.4,66.1,29.81,SW,225,5.8,5.8,99,0.00,CLR,,0.00,WeatherDisplay:10.37,2013-05-21 10:35:00,
2013-05-21 06:40:00,66.7,66.4,29.81,SSW,202,2.3,2.3,99,0.00,CLR,,0.00,WeatherDisplay:10.37,2013-05-21 10:40:00,
2013-05-21 06:45:00,66.9,66.6,29.81,South,180,1.1,1.1,99,0.00,CLR,,0.00,WeatherDisplay:10.37,2013-05-21 10:45:00,
2013-05-21 06:50:00,66.9,66.6,29.81,SSW,202,2.3,2.3,99,0.00,CLR,,0.00,WeatherDisplay:10.37,2013-05-21 10:50:00,
2013-05-21 06:55:00,67.8,67.2,29.81,SSW,202,2.3,2.3,98,0.00,CLR,,0.00,WeatherDisplay:10.37,2013-05-21 10:55:00,
2013-05-21 07:00:00,68.4,67.2,29.81,ESE,112,3.5,3.5,96,0.00,CLR,,0.00,WeatherDisplay:10.37,2013-05-21 11:00:00,
2013-05-21 07:05:00,69.3,67.8,29.81,NE,45,2.3,2.3,95,0.00,CLR,,0.00,WeatherDisplay:10.37,2013-05-21 11:05:00,
2013-05-21 07:10:00,69.8,68.0,29.81,SW,225,4.6,4.6,94,0.00,CLR,,0.00,WeatherDisplay:10.37,2013-05-21 11:10:00,
2013-05-21 07:15:00,70.9,68.5,29.81,SSW,202,0.0,0.0,92,0.00,CLR,,0.00,WeatherDisplay:10.37,2013-05-21 11:15:00,
2013-05-21 07:20:00,71.2,68.4,29.81,SW,225,2.3,2.3,91,0.00,CLR,,0.00,WeatherDisplay:10.37,2013-05-21 11:20:00,
2013-05-21 07:25:00,71.4,68.3,29.81,SSW,202,3.5,3.5,90,0.00,CLR,,0.00,WeatherDisplay:10.37,2013-05-21 11:25:00,
2013-05-21 07:30:00,71.6,68.5,29.81,WSW,248,3.5,3.5,90,0.00,CLR,,0.00,WeatherDisplay:10.37,2013-05-21 11:30:00,
2013-05-21 07:35:00,71.8,68.7,29.81,SW,225,3.2,3.2,90,0.00,CLR,,0.00,WeatherDisplay:10.37,2013-05-21 11:35:00,
2013-05-21 07:40:00,72.1,68.7,29.82,SW,225,3.5,3.5,89,0.00,CLR,,0.00,WeatherDisplay:10.37,2013-05-21 11:40:00,
2013-05-21 07:45:00,72.0,68.6,29.82,West,270,4.2,4.2,89,0.00,CLR,,0.00,WeatherDisplay:10.37,2013-05-21 11:45:00,
2013-05-21 07:50:00,72.5,68.4,29.82,SW,225,5.8,5.8,87,0.00,CLR,,0.00,WeatherDisplay:10.37,2013-05-21 11:50:00,
2013-05-21 07:55:00,73.0,68.9,29.82,SW,225,4.6,4.6,87,0.00,CLR,,0.00,WeatherDisplay:10.37,2013-05-21 11:55:00,
2013-05-21 08:00:00,73.6,69.2,29.82,SW,225,6.9,6.9,86,0.00,CLR,,0.00,WeatherDisplay:10.37,2013-05-21 12:00:00,
2013-05-21 08:05:00,73.9,69.1,29.81,SSW,202,5.8,5.8,85,0.00,CLR,,0.00,WeatherDisplay:10.37,2013-05-21 12:05:00,
2013-05-21 08:10:00,74.8,69.6,29.81,SSW,202,2.3,2.3,84,0.00,CLR,,0.00,WeatherDisplay:10.37,2013-05-21 12:10:00,
2013-05-21 08:15:00,74.3,69.1,29.81,WSW,248,5.8,5.8,84,0.00,CLR,,0.00,WeatherDisplay:10.37,2013-05-21 12:15:00,
2013-05-21 08:20:00,74.5,69.3,29.81,West,270,4.6,4.6,84,0.00,CLR,,0.00,WeatherDisplay:10.37,2013-05-21 12:20:00,
2013-05-21 08:25:00,75.0,69.8,29.81,West,270,4.7,4.7,84,0.00,CLR,,0.00,WeatherDisplay:10.37,2013-05-21 12:25:00,
2013-05-21 08:30:00,75.2,69.7,29.82,SSW,202,4.7,4.7,83,0.00,CLR,,0.00,WeatherDisplay:10.37,2013-05-21 12:30:00,
2013-05-21 08:35:00,75.7,69.8,29.82,SSW,202,4.6,4.6,82,0.00,CLR,,0.00,WeatherDisplay:10.37,2013-05-21 12:35:00,
2013-05-21 08:40:00,75.6,69.7,29.82,SW,225,5.8,5.8,82,0.00,CLR,,0.00,WeatherDisplay:10.37,2013-05-21 12:40:00,
2013-05-21 08:45:00,75.7,69.5,29.82,WSW,248,5.8,5.8,81,0.00,CLR,,0.00,WeatherDisplay:10.37,2013-05-21 12:45:00,
2013-05-21 08:50:00,77.4,70.4,29.81,ESE,112,4.6,4.6,79,0.00,CLR,,0.00,WeatherDisplay:10.37,2013-05-21 12:50:00,
2013-05-21 08:55:00,77.4,70.4,29.81,WSW,248,3.5,3.5,79,0.00,CLR,,0.00,WeatherDisplay:10.37,2013-05-21 12:55:00,
2013-05-21 09:00:00,78.3,70.5,29.81,WSW,248,3.5,3.5,77,0.00,CLR,,0.00,WeatherDisplay:10.37,2013-05-21 13:00:00,
2013-05-21 09:05:00,79.0,70.8,29.81,SSW,202,2.7,2.7,76,0.00,BKN,,0.00,WeatherDisplay:10.37,2013-05-21 13:05:00,
2013-05-21 09:10:00,79.5,70.5,29.81,SW,225,3.7,3.7,74,0.00,BKN,,0.00,WeatherDisplay:10.37,2013-05-21 13:10:00,
2013-05-21 09:15:00,77.5,70.1,29.81,SW,225,6.3,6.3,78,0.00,BKN,,0.00,WeatherDisplay:10.37,2013-05-21 13:15:00,
2013-05-21 09:20:00,77.4,70.7,29.81,SSW,202,3.5,3.5,80,0.00,BKN,,0.00,WeatherDisplay:10.37,2013-05-21 13:20:00,
2013-05-21 09:25:00,78.8,70.6,29.80,WSW,248,4.6,4.6,76,0.00,BKN,,0.00,WeatherDisplay:10.37,2013-05-21 13:25:00,
2013-05-21 09:30:00,78.1,70.7,29.80,West,270,3.5,3.5,78,0.00,BKN,,0.00,WeatherDisplay:10.37,2013-05-21 13:30:00,
2013-05-21 09:35:00,78.4,70.6,29.80,WSW,248,5.8,5.8,77,0.00,BKN,,0.00,WeatherDisplay:10.37,2013-05-21 13:35:00,
2013-05-21 09:40:00,79.5,70.5,29.81,WSW,248,7.3,7.3,74,0.00,BKN,,0.00,WeatherDisplay:10.37,2013-05-21 13:40:00,
2013-05-21 09:45:00,77.9,70.5,29.81,WSW,248,5.8,5.8,78,0.00,BKN,,0.00,WeatherDisplay:10.37,2013-05-21 13:45:00,
2013-05-21 09:50:00,77.7,69.9,29.81,WSW,248,5.8,5.8,77,0.00,BKN,,0.00,WeatherDisplay:10.37,2013-05-21 13:50:00,
2013-05-21 09:55:00,78.3,70.5,29.81,SSW,202,5.8,5.8,77,0.00,BKN,,0.00,WeatherDisplay:10.37,2013-05-21 13:55:00,
2013-05-21 10:00:00,78.8,70.6,29.81,SW,225,4.6,4.6,76,0.00,BKN,,0.00,WeatherDisplay:10.37,2013-05-21 14:00:00,
2013-05-21 10:05:00,77.9,70.1,29.81,SW,225,5.8,5.8,77,0.00,FEW,,0.00,WeatherDisplay:10.37,2013-05-21 14:05:00,
2013-05-21 10:10:00,80.2,71.2,29.81,SW,225,6.3,6.3,74,0.00,FEW,,0.00,WeatherDisplay:10.37,2013-05-21 14:10:00,
2013-05-21 10:15:00,79.7,71.1,29.80,West,270,6.9,6.9,75,0.00,FEW,,0.00,WeatherDisplay:10.37,2013-05-21 14:15:00,
2013-05-21 10:20:00,79.0,70.8,29.80,SW,225,5.8,5.8,76,0.00,FEW,,0.00,WeatherDisplay:10.37,2013-05-21 14:20:00,
2013-05-21 10:25:00,80.1,71.1,29.80,WSW,248,7.3,7.3,74,0.00,FEW,,0.00,WeatherDisplay:10.37,2013-05-21 14:25:00,
2013-05-21 10:30:00,80.4,70.5,29.80,East,90,5.8,5.8,72,0.00,FEW,,0.00,WeatherDisplay:10.37,2013-05-21 14:30:00,
2013-05-21 10:35:00,80.4,70.9,29.80,SSW,202,5.8,5.8,73,0.00,FEW,,0.00,WeatherDisplay:10.37,2013-05-21 14:35:00,
2013-05-21 10:40:00,79.2,70.6,29.80,SW,225,6.9,6.9,75,0.00,FEW,,0.00,WeatherDisplay:10.37,2013-05-21 14:40:00,
2013-05-21 10:45:00,81.1,70.8,29.80,WSW,248,9.2,9.2,71,0.00,FEW,,0.00,WeatherDisplay:10.37,2013-05-21 14:45:00,
2013-05-21 10:50:00,81.1,71.2,29.80,WSW,248,4.2,4.2,72,0.00,FEW,,0.00,WeatherDisplay:10.37,2013-05-21 14:50:00,
2013-05-21 10:55:00,81.7,71.8,29.80,WSW,248,5.8,5.8,72,0.00,FEW,,0.00,WeatherDisplay:10.37,2013-05-21 14:55:00,
2013-05-21 11:00:00,83.1,71.9,29.80,West,270,5.8,5.8,69,0.00,FEW,,0.00,WeatherDisplay:10.37,2013-05-21 15:00:00,
2013-05-21 11:05:00,82.9,71.7,29.79,West,270,5.8,5.8,69,0.00,CLR,,0.00,WeatherDisplay:10.37,2013-05-21 15:05:00,
2013-05-21 11:10:00,82.2,71.9,29.79,SW,225,4.6,4.6,71,0.00,CLR,,0.00,WeatherDisplay:10.37,2013-05-21 15:10:00,
2013-05-21 11:15:00,83.1,71.9,29.79,West,270,7.3,7.3,69,0.00,CLR,,0.00,WeatherDisplay:10.37,2013-05-21 15:15:00,
2013-05-21 11:20:00,82.9,71.7,29.79,SSW,202,8.1,8.1,69,0.00,CLR,,0.00,WeatherDisplay:10.37,2013-05-21 15:20:00,
2013-05-21 11:25:00,82.6,71.4,29.79,WSW,248,5.8,5.8,69,0.00,CLR,,0.00,WeatherDisplay:10.37,2013-05-21 15:25:00,
2013-05-21 11:30:00,84.0,71.9,29.79,SW,225,6.9,6.9,67,0.00,CLR,,0.00,WeatherDisplay:10.37,2013-05-21 15:30:00,
2013-05-21 11:35:00,85.1,72.9,29.79,SSW,202,9.4,9.4,67,0.00,CLR,,0.00,WeatherDisplay:10.37,2013-05-21 15:35:00,
2013-05-21 11:40:00,85.1,72.5,29.78,SW,225,8.3,8.3,66,0.00,CLR,,0.00,WeatherDisplay:10.37,2013-05-21 15:40:00,
2013-05-21 11:45:00,84.6,71.5,29.78,SW,225,6.9,6.9,65,0.00,CLR,,0.00,WeatherDisplay:10.37,2013-05-21 15:45:00,
2013-05-21 11:50:00,85.3,72.2,29.77,SSW,202,5.8,5.8,65,0.00,CLR,,0.00,WeatherDisplay:10.37,2013-05-21 15:50:00,
2013-05-21 11:55:00,85.6,72.5,29.77,West,270,5.8,5.8,65,0.00,CLR,,0.00,WeatherDisplay:10.37,2013-05-21 15:55:00,
2013-05-21 12:00:00,85.3,72.2,29.77,West,270,10.4,10.4,65,0.00,CLR,,0.00,WeatherDisplay:10.37,2013-05-21 16:00:00,
2013-05-21 12:05:00,85.8,71.7,29.78,SSE,158,8.1,8.1,63,0.00,CLR,,0.00,WeatherDisplay:10.37,2013-05-21 16:05:00,
2013-05-21 12:10:00,86.4,71.8,29.78,SSW,202,8.1,8.1,62,0.00,CLR,,0.00,WeatherDisplay:10.37,2013-05-21 16:10:00,
2013-05-21 12:15:00,86.4,72.3,29.78,SSW,202,9.2,9.2,63,0.00,CLR,,0.00,WeatherDisplay:10.37,2013-05-21 16:15:00,
2013-05-21 12:20:00,86.5,71.9,29.78,WSW,248,6.9,6.9,62,0.00,CLR,,0.00,WeatherDisplay:10.37,2013-05-21 16:20:00,
2013-05-21 12:25:00,85.8,72.2,29.78,WSW,248,3.5,3.5,64,0.00,CLR,,0.00,WeatherDisplay:10.37,2013-05-21 16:25:00,
2013-05-21 12:30:00,84.6,71.5,29.78,SW,225,9.4,9.4,65,0.00,CLR,,0.00,WeatherDisplay:10.37,2013-05-21 16:30:00,
2013-05-21 12:35:00,84.2,71.2,29.78,SW,225,6.9,6.9,65,0.00,BKN,,0.00,WeatherDisplay:10.37,2013-05-21 16:35:00,
2013-05-21 12:40:00,84.2,70.2,29.78,WSW,248,9.2,9.2,63,0.00,BKN,,0.00,WeatherDisplay:10.37,2013-05-21 16:40:00,
2013-05-21 12:45:00,83.8,70.8,29.78,SW,225,8.1,8.1,65,0.00,BKN,,0.00,WeatherDisplay:10.37,2013-05-21 16:45:00,
2013-05-21 12:50:00,85.6,72.0,29.77,West,270,4.6,4.6,64,0.00,BKN,,0.00,WeatherDisplay:10.37,2013-05-21 16:50:00,
2013-05-21 12:55:00,86.0,71.5,29.77,SW,225,6.9,6.9,62,0.00,BKN,,0.00,WeatherDisplay:10.37,2013-05-21 16:55:00,
2013-05-21 13:00:00,85.8,71.7,29.77,WSW,248,9.2,9.2,63,0.00,BKN,,0.00,WeatherDisplay:10.37,2013-05-21 17:00:00,
2013-05-21 13:05:00,85.5,71.5,29.78,West,270,6.3,6.3,63,0.00,BKN,,0.00,WeatherDisplay:10.37,2013-05-21 17:05:00,
2013-05-21 13:10:00,84.9,71.4,29.78,WSW,248,8.3,8.3,64,0.00,BKN,,0.00,WeatherDisplay:10.37,2013-05-21 17:10:00,
2013-05-21 13:15:00,86.7,71.2,29.77,SW,225,10.9,10.9,60,0.00,BKN,,0.00,WeatherDisplay:10.37,2013-05-21 17:15:00,
2013-05-21 13:20:00,86.0,71.0,29.77,SW,225,10.4,10.4,61,0.00,BKN,,0.00,WeatherDisplay:10.37,2013-05-21 17:20:00,
2013-05-21 13:25:00,87.8,71.7,29.76,West,270,6.8,6.8,59,0.00,BKN,,0.00,WeatherDisplay:10.37,2013-05-21 17:25:00,
2013-05-21 13:30:00,88.0,70.9,29.76,SW,225,5.8,5.8,57,0.00,BKN,,0.00,WeatherDisplay:10.37,2013-05-21 17:30:00,
2013-05-21 13:35:00,88.2,70.0,29.76,West,270,10.4,10.4,55,0.00,BKN,,0.00,WeatherDisplay:10.37,2013-05-21 17:35:00,
2013-05-21 13:40:00,87.8,71.2,29.75,SW,225,10.4,10.4,58,0.00,BKN,,0.00,WeatherDisplay:10.37,2013-05-21 17:40:00,
2013-05-21 13:45:00,88.3,70.6,29.75,WSW,248,8.1,8.1,56,0.00,BKN,,0.00,WeatherDisplay:10.37,2013-05-21 17:45:00,
2013-05-21 13:50:00,88.0,70.3,29.76,WSW,248,7.8,7.8,56,0.00,BKN,,0.00,WeatherDisplay:10.37,2013-05-21 17:50:00,
2013-05-21 13:55:00,86.2,69.2,29.76,SW,225,8.1,8.1,57,0.00,BKN,,0.00,WeatherDisplay:10.37,2013-05-21 17:55:00,
2013-05-21 14:00:00,87.4,70.3,29.76,SW,225,9.2,9.2,57,0.00,BKN,,0.00,WeatherDisplay:10.37,2013-05-21 18:00:00,
2013-05-21 14:05:00,86.2,69.2,29.75,WSW,248,9.2,9.2,57,0.00,SCT,,0.00,WeatherDisplay:10.37,2013-05-21 18:05:00,
2013-05-21 14:10:00,88.7,70.5,29.75,SW,225,10.4,10.4,55,0.00,SCT,,0.00,WeatherDisplay:10.37,2013-05-21 18:10:00,
2013-05-21 14:15:00,86.5,68.9,29.75,WSW,248,10.4,10.4,56,0.00,SCT,,0.00,WeatherDisplay:10.37,2013-05-21 18:15:00,
2013-05-21 14:20:00,86.9,69.8,29.75,SSW,202,9.2,9.2,57,0.00,SCT,,0.00,WeatherDisplay:10.37,2013-05-21 18:20:00,
2013-05-21 14:25:00,88.2,70.0,29.75,WSW,248,9.2,9.2,55,0.00,SCT,,0.00,WeatherDisplay:10.37,2013-05-21 18:25:00,
2013-05-21 14:30:00,87.1,69.5,29.75,WSW,248,8.1,8.1,56,0.00,SCT,,0.00,WeatherDisplay:10.37,2013-05-21 18:30:00,
2013-05-21 14:35:00,88.2,70.0,29.75,SSW,202,9.2,9.2,55,0.00,SCT,,0.00,WeatherDisplay:10.37,2013-05-21 18:35:00,
2013-05-21 14:40:00,87.6,69.4,29.74,SW,225,10.9,10.9,55,0.00,SCT,,0.00,WeatherDisplay:10.37,2013-05-21 18:40:00,
2013-05-21 14:45:00,89.4,70.0,29.74,South,180,10.4,10.4,53,0.00,SCT,,0.00,WeatherDisplay:10.37,2013-05-21 18:45:00,
2013-05-21 14:50:00,88.0,69.3,29.73,SSW,202,8.1,8.1,54,0.00,SCT,,0.00,WeatherDisplay:10.37,2013-05-21 18:50:00,
2013-05-21 14:55:00,88.3,70.1,29.73,SW,225,8.3,8.3,55,0.00,SCT,,0.00,WeatherDisplay:10.37,2013-05-21 18:55:00,
2013-05-21 15:00:00,89.4,70.0,29.73,SW,225,6.9,7.1,53,0.00,SCT,,0.00,WeatherDisplay:10.37,2013-05-21 19:00:00,
2013-05-21 15:05:00,87.4,68.7,29.73,SSW,202,10.4,10.4,54,0.00,BKN,,0.00,WeatherDisplay:10.37,2013-05-21 19:05:00,
2013-05-21 15:10:00,89.6,69.6,29.73,WNW,292,10.4,10.4,52,0.00,BKN,,0.00,WeatherDisplay:10.37,2013-05-21 19:10:00,
2013-05-21 15:15:00,90.5,69.3,29.73,SSW,202,8.3,8.3,50,0.00,BKN,,0.00,WeatherDisplay:10.37,2013-05-21 19:15:00,
2013-05-21 15:20:00,89.8,69.8,29.73,SW,225,6.8,6.8,52,0.00,BKN,,0.00,WeatherDisplay:10.37,2013-05-21 19:20:00,
2013-05-21 15:25:00,88.0,69.3,29.72,West,270,6.9,6.9,54,0.00,BKN,,0.00,WeatherDisplay:10.37,2013-05-21 19:25:00,
2013-05-21 15:30:00,87.1,69.0,29.72,NNW,338,10.4,10.4,55,0.00,BKN,,0.00,WeatherDisplay:10.37,2013-05-21 19:30:00,
2013-05-21 15:35:00,87.8,69.1,29.72,ESE,112,10.4,10.4,54,0.00,BKN,,0.00,WeatherDisplay:10.37,2013-05-21 19:35:00,
2013-05-21 15:40:00,87.8,68.5,29.72,SSW,202,9.2,9.2,53,0.00,BKN,,0.00,WeatherDisplay:10.37,2013-05-21 19:40:00,
2013-05-21 15:45:00,87.3,68.6,29.72,SSW,202,12.7,12.7,54,0.00,BKN,,0.00,WeatherDisplay:10.37,2013-05-21 19:45:00,
2013-05-21 15:50:00,90.3,69.1,29.72,SW,225,9.9,9.9,50,0.00,BKN,,0.00,WeatherDisplay:10.37,2013-05-21 19:50:00,
2013-05-21 15:55:00,88.7,68.8,29.72,SW,225,9.4,9.4,52,0.00,BKN,,0.00,WeatherDisplay:10.37,2013-05-21 19:55:00,
2013-05-21 16:00:00,88.5,68.1,29.72,SSW,202,11.5,11.5,51,0.00,BKN,,0.00,WeatherDisplay:10.37,2013-05-21 20:00:00,
2013-05-21 16:05:00,91.0,69.8,29.71,West,270,6.9,6.9,50,0.00,BKN,,0.00,WeatherDisplay:10.37,2013-05-21 20:05:00,
2013-05-21 16:10:00,89.8,68.1,29.71,West,270,10.9,10.9,49,0.00,BKN,,0.00,WeatherDisplay:10.37,2013-05-21 20:10:00,
2013-05-21 16:15:00,91.9,68.8,29.71,SW,225,9.2,9.2,47,0.00,BKN,,0.00,WeatherDisplay:10.37,2013-05-21 20:15:00,
2013-05-21 16:20:00,90.5,68.7,29.71,SW,225,6.8,6.8,49,0.00,BKN,,0.00,WeatherDisplay:10.37,2013-05-21 20:20:00,
2013-05-21 16:25:00,90.9,68.5,29.70,SSW,202,10.4,10.4,48,0.00,BKN,,0.00,WeatherDisplay:10.37,2013-05-21 20:25:00,
2013-05-21 16:30:00,89.6,68.5,29.70,WSW,248,6.9,6.9,50,0.00,BKN,,0.00,WeatherDisplay:10.37,2013-05-21 20:30:00,
2013-05-21 16:35:00,89.4,68.9,29.70,SW,225,11.5,11.5,51,0.00,CLR,,0.00,WeatherDisplay:10.37,2013-05-21 20:35:00,
2013-05-21 16:40:00,91.2,70.0,29.70,WSW,248,6.9,6.9,50,0.00,CLR,,0.00,WeatherDisplay:10.37,2013-05-21 20:40:00,
2013-05-21 16:45:00,89.8,68.1,29.70,SSW,202,10.4,10.4,49,0.00,CLR,,0.00,WeatherDisplay:10.37,2013-05-21 20:45:00,
2013-05-21 16:50:00,89.4,67.7,29.69,SW,225,11.5,11.5,49,0.00,CLR,,0.00,WeatherDisplay:10.37,2013-05-21 20:50:00,
2013-05-21 16:55:00,88.5,68.6,29.69,ESE,112,8.1,8.1,52,0.00,CLR,,0.00,WeatherDisplay:10.37,2013-05-21 20:55:00,
2013-05-21 17:00:00,90.3,69.1,29.69,SSE,158,5.8,5.8,50,0.00,CLR,,0.00,WeatherDisplay:10.37,2013-05-21 21:00:00,
2013-05-21 17:05:00,89.8,69.8,29.69,South,180,8.1,8.1,52,0.00,CLR,,0.00,WeatherDisplay:10.37,2013-05-21 21:05:00,
2013-05-21 17:10:00,90.7,68.9,29.69,SW,225,10.4,10.4,49,0.00,CLR,,0.00,WeatherDisplay:10.37,2013-05-21 21:10:00,
2013-05-21 17:15:00,89.2,68.7,29.69,WSW,248,9.2,9.2,51,0.00,CLR,,0.00,WeatherDisplay:10.37,2013-05-21 21:15:00,
2013-05-21 17:20:00,90.5,69.9,29.69,WSW,248,6.9,6.9,51,0.00,CLR,,0.00,WeatherDisplay:10.37,2013-05-21 21:20:00,
2013-05-21 17:25:00,89.6,69.1,29.68,West,270,9.2,9.2,51,0.00,CLR,,0.00,WeatherDisplay:10.37,2013-05-21 21:25:00,
2013-05-21 17:30:00,89.4,69.5,29.68,SW,225,10.4,10.4,52,0.00,CLR,,0.00,WeatherDisplay:10.37,2013-05-21 21:30:00,
2013-05-21 17:35:00,90.9,69.7,29.68,SSW,202,6.8,6.8,50,0.00,CLR,,0.00,WeatherDisplay:10.37,2013-05-21 21:35:00,
2013-05-21 17:40:00,90.7,69.5,29.68,WSW,248,4.7,4.7,50,0.00,CLR,,0.00,WeatherDisplay:10.37,2013-05-21 21:40:00,
2013-05-21 17:45:00,90.5,69.9,29.68,SW,225,10.4,10.4,51,0.00,CLR,,0.00,WeatherDisplay:10.37,2013-05-21 21:45:00,
2013-05-21 17:50:00,90.3,68.5,29.69,SW,225,10.4,10.4,49,0.00,CLR,,0.00,WeatherDisplay:10.37,2013-05-21 21:50:00,
2013-05-21 17:55:00,90.0,68.9,29.69,SW,225,8.1,8.1,50,0.00,CLR,,0.00,WeatherDisplay:10.37,2013-05-21 21:55:00,
2013-05-21 18:00:00,90.0,69.4,29.69,SSW,202,8.3,8.3,51,0.00,CLR,,0.00,WeatherDisplay:10.37,2013-05-21 22:00:00,
2013-05-21 18:05:00,89.2,68.7,29.69,West,270,6.9,6.9,51,0.00,CLR,,0.00,WeatherDisplay:10.37,2013-05-21 22:05:00,
2013-05-21 18:10:00,89.4,69.5,29.69,WSW,248,10.4,10.4,52,0.00,CLR,,0.00,WeatherDisplay:10.37,2013-05-21 22:10:00,
2013-05-21 18:15:00,89.4,69.5,29.69,SW,225,7.3,7.3,52,0.00,CLR,,0.00,WeatherDisplay:10.37,2013-05-21 22:15:00,
2013-05-21 18:20:00,88.9,68.4,29.69,South,180,8.1,8.1,51,0.00,CLR,,0.00,WeatherDisplay:10.37,2013-05-21 22:20:00,
2013-05-21 18:25:00,88.3,68.4,29.69,WSW,248,6.9,7.2,52,0.00,CLR,,0.00,WeatherDisplay:10.37,2013-05-21 22:25:00,
2013-05-21 18:30:00,88.0,68.2,29.69,SW,225,8.1,8.1,52,0.00,CLR,,0.00,WeatherDisplay:10.37,2013-05-21 22:30:00,
2013-05-21 18:35:00,88.7,68.8,29.69,SW,225,8.3,8.3,52,0.00,CLR,,0.00,WeatherDisplay:10.37,2013-05-21 22:35:00,
2013-05-21 18:40:00,87.6,68.4,29.69,SW,225,8.1,8.1,53,0.00,CLR,,0.00,WeatherDisplay:10.37,2013-05-21 22:40:00,
2013-05-21 18:45:00,88.0,69.3,29.69,WSW,248,5.8,5.8,54,0.00,CLR,,0.00,WeatherDisplay:10.37,2013-05-21 22:45:00,
2013-05-21 18:50:00,88.0,68.7,29.68,SSW,202,6.9,6.9,53,0.00,CLR,,0.00,WeatherDisplay:10.37,2013-05-21 22:50:00,
2013-05-21 18:55:00,87.1,69.0,29.68,WSW,248,9.2,9.2,55,0.00,CLR,,0.00,WeatherDisplay:10.37,2013-05-21 22:55:00,
2013-05-21 19:00:00,86.7,68.6,29.69,WSW,248,8.1,8.1,55,0.00,CLR,,0.00,WeatherDisplay:10.37,2013-05-21 23:00:00,
2013-05-21 19:05:00,87.1,69.0,29.69,SW,225,5.3,5.3,55,0.00,CLR,,0.00,WeatherDisplay:10.37,2013-05-21 23:05:00,
2013-05-21 19:10:00,86.7,69.1,29.69,SW,225,4.6,4.6,56,0.00,CLR,,0.00,WeatherDisplay:10.37,2013-05-21 23:10:00,
2013-05-21 19:15:00,86.5,68.9,29.69,SSW,202,6.8,6.8,56,0.00,CLR,,0.00,WeatherDisplay:10.37,2013-05-21 23:15:00,
2013-05-21 19:20:00,85.6,69.1,29.69,SW,225,5.8,5.8,58,0.00,CLR,,0.00,WeatherDisplay:10.37,2013-05-21 23:20:00,
2013-05-21 19:25:00,85.8,68.8,29.69,South,180,6.9,6.9,57,0.00,CLR,,0.00,WeatherDisplay:10.37,2013-05-21 23:25:00,
2013-05-21 19:30:00,85.6,69.1,29.69,SSW,202,6.3,6.3,58,0.00,CLR,,0.00,WeatherDisplay:10.37,2013-05-21 23:30:00,
2013-05-21 19:35:00,84.9,69.0,29.69,WSW,248,6.9,6.9,59,0.00,CLR,,0.00,WeatherDisplay:10.37,2013-05-21 23:35:00,
2013-05-21 19:40:00,84.4,69.0,29.69,WSW,248,5.8,5.8,60,0.00,CLR,,0.00,WeatherDisplay:10.37,2013-05-21 23:40:00,
2013-05-21 19:45:00,84.2,68.8,29.69,WSW,248,5.8,5.8,60,0.00,CLR,,0.00,WeatherDisplay:10.37,2013-05-21 23:45:00,
2013-05-21 19:50:00,83.7,68.8,29.69,WSW,248,4.6,4.6,61,0.00,CLR,,0.00,WeatherDisplay:10.37,2013-05-21 23:50:00,
2013-05-21 19:55:00,83.1,68.7,29.69,SSW,202,4.6,4.6,62,0.00,CLR,,0.00,WeatherDisplay:10.37,2013-05-21 23:55:00,
2013-05-21 20:00:00,82.9,69.0,29.69,WSW,248,3.5,3.5,63,0.00,CLR,,0.00,WeatherDisplay:10.37,2013-05-22 00:00:00,
2013-05-21 20:05:00,82.9,69.0,29.69,SW,225,3.7,3.7,63,0.00,FEW,,0.00,WeatherDisplay:10.37,2013-05-22 00:05:00,
2013-05-21 20:10:00,82.2,68.3,29.69,SW,225,3.7,3.7,63,0.00,FEW,,0.00,WeatherDisplay:10.37,2013-05-22 00:10:00,
2013-05-21 20:15:00,81.5,68.1,29.69,WSW,248,4.6,4.6,64,0.00,FEW,,0.00,WeatherDisplay:10.37,2013-05-22 00:15:00,
2013-05-21 20:20:00,81.3,68.4,29.69,SW,225,3.5,3.5,65,0.00,FEW,,0.00,WeatherDisplay:10.37,2013-05-22 00:20:00,
2013-05-21 20:25:00,80.6,68.2,29.70,SW,225,3.7,3.7,66,0.00,FEW,,0.00,WeatherDisplay:10.37,2013-05-22 00:25:00,
2013-05-21 20:30:00,80.2,68.2,29.70,WSW,248,4.6,4.6,67,0.00,FEW,,0.00,WeatherDisplay:10.37,2013-05-22 00:30:00,
2013-05-21 20:35:00,79.7,68.2,29.70,SW,225,6.3,6.3,68,0.00,FEW,,0.00,WeatherDisplay:10.37,2013-05-22 00:35:00,
2013-05-21 20:40:00,79.2,68.1,29.70,SW,225,4.6,4.6,69,0.00,FEW,,0.00,WeatherDisplay:10.37,2013-05-22 00:40:00,
2013-05-21 20:45:00,79.0,68.0,29.70,SSW,202,3.7,3.7,69,0.00,FEW,,0.00,WeatherDisplay:10.37,2013-05-22 00:45:00,
2013-05-21 20:50:00,78.8,67.8,29.70,West,270,4.6,4.6,69,0.00,FEW,,0.00,WeatherDisplay:10.37,2013-05-22 00:50:00,
2013-05-21 20:55:00,78.4,67.4,29.70,SW,225,4.6,4.6,69,0.00,FEW,,0.00,WeatherDisplay:10.37,2013-05-22 00:55:00,
2013-05-21 21:00:00,78.4,67.4,29.70,SW,225,4.2,4.2,69,0.00,FEW,,0.00,WeatherDisplay:10.37,2013-05-22 01:00:00,
2013-05-21 21:05:00,78.1,67.5,29.69,SSW,202,3.7,3.7,70,0.00,FEW,,0.00,WeatherDisplay:10.37,2013-05-22 01:05:00,
2013-05-21 21:10:00,77.9,67.3,29.69,South,180,3.5,3.5,70,0.00,FEW,,0.00,WeatherDisplay:10.37,2013-05-22 01:10:00,
2013-05-21 21:15:00,77.7,67.1,29.69,SSW,202,3.2,3.2,70,0.00,FEW,,0.00,WeatherDisplay:10.37,2013-05-22 01:15:00,
2013-05-21 21:20:00,77.5,67.4,29.69,WSW,248,3.5,3.7,71,0.00,FEW,,0.00,WeatherDisplay:10.37,2013-05-22 01:20:00,
2013-05-21 21:25:00,77.5,67.4,29.70,WSW,248,4.6,4.6,71,0.00,FEW,,0.00,WeatherDisplay:10.37,2013-05-22 01:25:00,
2013-05-21 21:30:00,77.4,67.3,29.70,West,270,3.7,3.8,71,0.00,FEW,,0.00,WeatherDisplay:10.37,2013-05-22 01:30:00,
2013-05-21 21:35:00,77.2,67.1,29.70,SW,225,4.6,4.6,71,0.00,CLR,,0.00,WeatherDisplay:10.37,2013-05-22 01:35:00,
2013-05-21 21:40:00,77.2,67.5,29.70,SW,225,4.2,4.2,72,0.00,CLR,,0.00,WeatherDisplay:10.37,2013-05-22 01:40:00,
2013-05-21 21:45:00,76.8,67.1,29.70,West,270,4.7,4.7,72,0.00,CLR,,0.00,WeatherDisplay:10.37,2013-05-22 01:45:00,
2013-05-21 21:50:00,76.5,67.6,29.71,SSW,202,4.6,4.6,74,0.00,CLR,,0.00,WeatherDisplay:10.37,2013-05-22 01:50:00,
2013-05-21 21:55:00,76.5,67.6,29.71,WSW,248,4.6,4.6,74,0.00,CLR,,0.00,WeatherDisplay:10.37,2013-05-22 01:55:00,
2013-05-21 22:00:00,76.5,67.6,29.71,SSW,202,4.6,4.6,74,0.00,CLR,,0.00,WeatherDisplay:10.37,2013-05-22 02:00:00,
2013-05-21 22:05:00,76.3,67.4,29.71,SW,225,3.5,3.5,74,0.00,CLR,,0.00,WeatherDisplay:10.37,2013-05-22 02:05:00,
2013-05-21 22:10:00,76.1,67.2,29.71,WSW,248,3.7,3.7,74,0.00,CLR,,0.00,WeatherDisplay:10.37,2013-05-22 02:10:00,
2013-05-21 22:15:00,76.1,67.2,29.71,WSW,248,3.5,3.5,74,0.00,CLR,,0.00,WeatherDisplay:10.37,2013-05-22 02:15:00,
2013-05-21 22:20:00,76.1,67.6,29.71,WSW,248,2.7,3.2,75,0.00,CLR,,0.00,WeatherDisplay:10.37,2013-05-22 02:20:00,
2013-05-21 22:25:00,75.7,67.6,29.72,WSW,248,6.3,6.3,76,0.00,CLR,,0.00,WeatherDisplay:10.37,2013-05-22 02:25:00,
2013-05-21 22:30:00,75.6,67.9,29.72,West,270,8.1,8.1,77,0.00,CLR,,0.00,WeatherDisplay:10.37,2013-05-22 02:30:00,
2013-05-21 22:35:00,75.9,67.8,29.72,SW,225,2.3,0.0,76,0.00,BKN,,0.00,WeatherDisplay:10.37,2013-05-22 02:35:00,
2013-05-21 22:40:00,75.9,67.4,29.72,WNW,292,3.5,3.5,75,0.00,BKN,,0.00,WeatherDisplay:10.37,2013-05-22 02:40:00,
2013-05-21 22:45:00,75.9,67.0,29.72,SSW,202,2.2,2.2,74,0.00,BKN,,0.00,WeatherDisplay:10.37,2013-05-22 02:45:00,
2013-05-21 22:50:00,75.7,67.6,29.72,SW,225,1.1,1.4,76,0.00,BKN,,0.00,WeatherDisplay:10.37,2013-05-22 02:50:00,
2013-05-21 22:55:00,75.4,67.7,29.72,SSW,202,3.7,3.7,77,0.00,BKN,,0.00,WeatherDisplay:10.37,2013-05-22 02:55:00,
2013-05-21 23:00:00,75.2,67.5,29.72,SSW,202,2.7,2.7,77,0.00,BKN,,0.00,WeatherDisplay:10.37,2013-05-22 03:00:00,
2013-05-21 23:05:00,75.0,68.4,29.72,SW,225,4.2,4.2,80,0.00,SCT,,0.00,WeatherDisplay:10.37,2013-05-22 03:05:00,
2013-05-21 23:10:00,74.8,68.2,29.72,SW,225,5.8,5.8,80,0.00,SCT,,0.00,WeatherDisplay:10.37,2013-05-22 03:10:00,
2013-05-21 23:15:00,74.1,67.9,29.73,West,270,4.2,4.2,81,0.00,SCT,,0.00,WeatherDisplay:10.37,2013-05-22 03:15:00,
2013-05-21 23:20:00,73.9,68.1,29.73,WSW,248,3.7,3.7,82,0.00,SCT,,0.00,WeatherDisplay:10.37,2013-05-22 03:20:00,
2013-05-21 23:25:00,72.7,68.3,29.72,SSW,202,3.7,3.7,86,0.00,SCT,,0.00,WeatherDisplay:10.37,2013-05-22 03:25:00,
2013-05-21 23:30:00,72.7,67.6,29.72,SSW,202,3.5,3.5,84,0.00,SCT,,0.00,WeatherDisplay:10.37,2013-05-22 03:30:00,
2013-05-21 23:35:00,72.5,67.7,29.72,NW,315,3.5,3.5,85,0.00,SCT,,0.00,WeatherDisplay:10.37,2013-05-22 03:35:00,
2013-05-21 23:40:00,72.0,67.6,29.72,West,270,4.6,4.6,86,0.00,SCT,,0.00,WeatherDisplay:10.37,2013-05-22 03:40:00,
2013-05-21 23:45:00,71.6,67.2,29.72,SW,225,3.2,3.2,86,0.00,SCT,,0.00,WeatherDisplay:10.37,2013-05-22 03:45:00,
2013-05-21 23:50:00,71.2,66.8,29.72,WSW,248,4.6,4.6,86,0.00,SCT,,0.00,WeatherDisplay:10.37,2013-05-22 03:50:00,
2013-05-21 23:55:00,70.9,66.5,29.72,SSW,202,4.7,4.7,86,0.00,SCT,,0.00,WeatherDisplay:10.37,2013-05-22 03:55:00,